#timestamp,LO_Frequency,Hit 
1504717215.8,286046998.4,N
1504717235.6,286046999.3,N
1504717255.5,286046999.0,N
1504717275.3,286046999.6,N
1504717295.1,286046999.2,N
1504717315.9,286046998.8,N
1504717335.7,286046999.0,N
1504717355.6,286046996.8,N
1504717375.4,286046999.6,N
1504717395.2,286046999.6,N
1504717415.1,286046998.8,N
1504717416.0,286046998.8,N
1504717435.8,286047001.1,N
1504717455.7,286046998.8,N
1504717475.5,286046998.1,N
1504717495.3,286047000.9,N
1504717515.2,286046998.3,N
1504717535.0,286047001.1,N
1504717535.9,286047001.1,N
1504717555.7,286046998.9,N
1504717575.6,286047001.2,N
1504717595.4,286047000.2,N
1504717615.3,286047001.2,N
1504717635.1,286047000.5,N
1504717636.0,286047000.5,N
1504717655.8,286047000.9,N
1504717675.7,286047000.5,N
1504717695.5,286047000.1,N
1504717715.3,286046999.8,N
1504717735.2,286047000.2,N
1504717755.0,286047002.2,N
1504717755.9,286047002.2,N
1504717775.8,286047001.3,N
1504717795.6,286047002.3,N
1504717815.4,286047000.9,N
1504717835.3,286046999.8,N
1504717855.1,286047000.5,N
1504717875.9,286047000.9,N
1504717895.7,286047001.8,N
1504717915.5,286047002.5,N
1504717935.4,286047002.8,N
1504717955.2,286047000.6,N
1504717975.0,286047000.4,N
1504717976.0,286047000.4,N
1504717995.8,286046998.2,N
1504718015.6,286047000.9,N
1504718035.5,286047000.3,N
1504718055.3,286046998.1,N
1504718075.1,286047001.0,N
1504718095.9,286046999.9,N
1504718115.7,286046999.8,N
1504718135.6,286047002.8,N
1504718155.4,286047001.5,N
1504718175.2,286047001.5,N
1504718195.1,286047004.0,P
1504718196.0,286047004.0,N
1504718215.8,286047001.4,N
1504718235.7,286047001.4,N
1504718255.5,286047001.8,N
1504718275.3,286047001.8,N
1504718295.2,286047001.9,N
1504718315.0,286047003.8,P
1504718315.9,286047003.8,P
1504718335.8,286047000.1,N
1504718355.6,286047002.8,N
1504718375.4,286047000.1,N
1504718395.3,286046999.7,N
1504718415.1,286047000.9,N
1504718435.9,286047000.4,N
1504718455.7,286047002.8,N
1504718475.5,286047000.6,N
1504718495.4,286047000.9,N
1504718515.2,286047000.7,N
1504718535.0,286046998.5,N
1504718536.0,286046998.5,N
1504718555.8,286046998.8,P
1504718575.6,286046999.0,N
1504718595.5,286046999.2,N
1504718615.3,286046999.4,N
1504718635.1,286046998.9,N
1504718655.9,286046998.2,N
1504718675.7,286046996.5,P
1504718695.6,286046999.5,N
1504718715.4,286046998.7,N
1504718735.2,286046998.7,N
1504718755.1,286047000.9,N
1504718756.0,286047000.9,N
1504718775.8,286047000.8,N
1504718795.7,286047001.0,N
1504718815.5,286047000.7,N
1504718835.3,286047000.5,N
1504718855.2,286047000.8,N
1504718875.0,286047000.9,N
1504718875.9,286047000.9,N
1504718895.8,286046999.9,N
1504718915.6,286047002.8,N
1504718935.4,286046998.4,N
1504718955.3,286046998.7,N
1504718975.1,286047000.2,N
1504718995.8,286047002.8,N
1504719015.7,286047000.1,N
1504719035.5,286047002.2,N
1504719055.4,286046999.9,N
1504719075.2,286047000.9,N
1504719095.0,286047000.8,N
1504719095.9,286047000.8,N
1504719115.8,286047002.0,N
1504719135.6,286047004.0,N
1504719155.5,286047001.5,N
1504719175.3,286047000.2,N
1504719195.1,286047002.8,N
1504719215.9,286047002.2,N
1504719235.7,286047002.8,N
1504719255.5,286047000.1,N
1504719275.4,286047000.3,N
1504719295.2,286046999.9,N
1504719315.1,286047000.2,N
1504719316.0,286047000.2,N
1504719335.8,286046999.7,N
1504719355.6,286047004.3,P
1504719375.5,286047002.0,N
1504719395.3,286047001.5,N
1504719415.2,286047003.9,P
1504719435.9,286047000.2,N
1504719455.7,286046999.8,N
1504719475.6,286047000.7,N
1504719495.4,286046998.1,N
1504719515.3,286046998.7,N
1504719535.1,286046997.1,N
1504719536.0,286046997.1,N
1504719555.8,286046999.6,N
1504719575.7,286046996.9,N
1504719595.5,286046996.7,N
1504719615.3,286046996.9,N
1504719635.2,286046997.0,N
1504719655.0,286046996.6,N
1504719655.9,286046996.6,N
1504719675.8,286046996.9,N
1504719695.6,286046996.9,N
1504719715.4,286046997.4,N
1504719735.3,286046999.2,N
1504719755.1,286046999.4,N
1504719775.8,286046999.2,N
1504719795.7,286046997.4,N
1504719815.5,286046996.6,N
1504719835.4,286046996.8,N
1504719855.2,286046996.8,N
1504719875.0,286046998.8,N
1504719875.9,286046998.8,N
1504719895.8,286046997.1,N
1504719915.6,286046997.8,N
1504719935.5,286046996.9,N
1504719955.3,286046999.5,N
1504719975.1,286047000.8,N
1504719995.9,286047000.9,N
1504720015.7,286047000.9,N
1504720035.5,286047000.2,N
1504720055.4,286047001.8,N
1504720075.2,286047001.6,N
1504720095.1,286047004.4,N
1504720096.0,286047004.4,N
1504720115.8,286047003.9,N
1504720135.6,286047001.4,N
1504720155.5,286047002.2,N
1504720175.3,286047002.7,N
1504720195.2,286046999.7,N
1504720215.9,286047001.9,N
1504720235.7,286047001.5,N
1504720255.6,286047001.8,N
1504720275.4,286047002.8,N
1504720295.3,286047002.6,N
1504720315.1,286047000.3,N
1504720316.0,286047000.3,N
1504720335.8,286047002.3,N
1504720355.7,286047000.2,N
1504720375.5,286047002.6,N
1504720395.3,286047003.8,N
1504720415.2,286047001.8,N
1504720435.0,286047002.0,N
1504720435.9,286047002.0,N
1504720455.8,286047002.6,N
1504720475.6,286047002.6,N
1504720495.4,286046999.7,N
1504720515.3,286047002.0,N
1504720535.1,286047001.6,N
1504720555.9,286047002.0,N
1504720575.7,286047001.0,N
1504720595.5,286047002.6,N
1504720615.4,286047002.6,N
1504720635.2,286047002.6,N
1504720655.0,286047000.2,N
1504720656.0,286047000.2,N
1504720675.8,286047000.9,N
1504720695.6,286047000.7,N
1504720715.5,286047002.3,N
1504720735.3,286047001.6,N
1504720755.1,286047001.9,N
1504720775.9,286047003.6,P
1504720795.7,286047002.5,N
